2021-022M

Last updated on Thu Apr 22 2021 00:02:03 GMT+0000 (Coordinated Universal Time)

1 47943U 21022M 21111.48391747 .00002084 00000-0 14362-3 0 9996 2 47943 97.5610 14.8219 0019424 130.9052 333.8576 15.06788173 4366

Satellite not in orbit

2021-022M